Pompano Beach, FL

9:07 AM EDT on March 28, 2017 (GMT -0400)
Pompano Beach

Weather History for KPMP - June, 2013

Change the Weather History Date:

Saturday, June 22, 2013

  Actual Average Record
Temperature  
Mean Temperature 84 °F -  
Max Temperature 88 °F 91 °F 97 °F (1982)
Min Temperature 81 °F 73 °F 65 °F (1976)
Cooling Degree Days 19    
Growing Degree Days 34 (Base 50)    
Moisture  
Dew Point 74 °F    
Average Humidity 73    
Maximum Humidity 85    
Minimum Humidity 65    
Precipitation  
Precipitation 0.00 in - - ()
Sea Level Pressure  
Sea Level Pressure 30.08 in    
Wind  
Wind Speed 10 mph (East)    
Max Wind Speed 13 mph    
Max Gust Speed 16 mph    
Visibility 10 miles    
Events      
Averages and records for this station are not official NWS values.
T = Trace of Precipitation, MM = Missing Value Source: NWS Daily Summary

Daily Weather History Graph

Daily Weather History Graph

Search for Another Location

Airport or City:

Trip Planner

Search our weather history database for the weather conditions in past years. The results will help you decide how hot, cold, wet, or windy it might be!

Date:

Astronomy

Jun. 22, 2013 Rise Set
Actual Time 6:28 AM EDT 8:16 PM EDT
Civil Twilight 6:02 AM EDT 8:42 PM EDT
Nautical Twilight 5:31 AM EDT 9:13 PM EDT
Astronomical Twilight 4:58 AM EDT 9:46 PM EDT
Moon 7:34 PM EDT (6/22) 5:34 AM EDT (6/22)
Length of Visible Light 14h 39m
Length of Day
13h 47m
Waxing Gibbous, 99% of the Moon is Illuminated
Jun 22
Waxing Gibbous
Jun 23
Full
Jun 30
Last Quarter
Jul 8
New
Jul 15
First Quarter

Hourly Weather History & Observations

Time (EDT) Temp. Heat Index Dew Point Humidity Pressure Visibility Wind Dir Wind Speed Gust Speed Precip Events Conditions
12:53 AM 82.0 °F 87.9 °F 73.9 °F 76% 30.10 in 10.0 mi ESE 10.4 mph - N/A   Partly Cloudy
1:53 AM 82.0 °F 87.4 °F 73.0 °F 74% 30.08 in 10.0 mi East 10.4 mph - N/A   Partly Cloudy
2:53 AM 82.0 °F 88.6 °F 75.0 °F 79% 30.06 in 10.0 mi East 9.2 mph - N/A   Scattered Clouds
3:53 AM 82.0 °F 87.4 °F 73.0 °F 74% 30.05 in 10.0 mi ESE 11.5 mph - N/A   Partly Cloudy
4:53 AM 81.0 °F 86.2 °F 73.9 °F 79% 30.06 in 10.0 mi East 5.8 mph - N/A   Clear
5:53 AM 81.0 °F 86.7 °F 75.0 °F 82% 30.06 in 10.0 mi ESE 9.2 mph - N/A   Scattered Clouds
6:53 AM 81.0 °F 86.2 °F 73.9 °F 79% 30.07 in 10.0 mi East 6.9 mph - N/A   Clear
7:53 AM 82.9 °F 89.4 °F 73.9 °F 74% 30.08 in 10.0 mi East 5.8 mph - N/A   Clear
8:53 AM 84.0 °F 90.2 °F 73.0 °F 69% 30.10 in 10.0 mi ESE 9.2 mph - N/A   Scattered Clouds
9:53 AM 84.9 °F 92.1 °F 73.9 °F 69% 30.11 in 10.0 mi East 10.4 mph - N/A   Scattered Clouds
10:53 AM 86.0 °F 93.8 °F 73.9 °F 67% 30.11 in 10.0 mi East 8.1 mph - N/A   Scattered Clouds
11:53 AM 87.1 °F 95.4 °F 73.9 °F 65% 30.12 in 10.0 mi ESE 9.2 mph - N/A   Scattered Clouds
12:53 PM 86.0 °F 93.8 °F 73.9 °F 67% 30.11 in 10.0 mi East 9.2 mph - N/A   Clear
1:53 PM 87.1 °F 95.4 °F 73.9 °F 65% 30.11 in 10.0 mi East 9.2 mph 16.1 mph N/A   Scattered Clouds
2:53 PM 87.1 °F 95.4 °F 73.9 °F 65% 30.09 in 10.0 mi East 11.5 mph - N/A   Scattered Clouds
3:53 PM 87.1 °F 95.4 °F 73.9 °F 65% 30.08 in 10.0 mi East 12.7 mph - N/A   Scattered Clouds
4:53 PM 87.1 °F 95.4 °F 73.9 °F 65% 30.07 in 10.0 mi East 12.7 mph - N/A   Clear
5:53 PM 86.0 °F 93.0 °F 73.0 °F 65% 30.06 in 10.0 mi East 11.5 mph - N/A   Scattered Clouds
6:53 PM 84.9 °F 92.1 °F 73.9 °F 69% 30.06 in 10.0 mi East 12.7 mph - N/A   Scattered Clouds
7:53 PM 82.9 °F 89.4 °F 73.9 °F 74% 30.06 in 10.0 mi East 12.7 mph - N/A   Clear
8:53 PM 82.0 °F 89.4 °F 75.9 °F 82% 30.07 in 10.0 mi East 10.4 mph - N/A   Partly Cloudy
9:53 PM 82.0 °F 90.2 °F 77.0 °F 85% 30.09 in 10.0 mi East 9.2 mph - N/A   Clear
10:53 PM 82.9 °F 90.8 °F 75.9 °F 79% 30.10 in 10.0 mi ESE 12.7 mph - N/A   Mostly Cloudy
11:53 PM 82.0 °F 87.9 °F 73.9 °F 76% 30.12 in 10.0 mi ESE 11.5 mph - N/A   Clear